Regional Weather Roundup
Issued by NWS Charleston, SC

Current Version | Previous Version | Graphics & Text | Print | Product List | Glossary On
Versions: 1 2 3 4 5 6 7 8 9 10 11 12 13 14 15 16 17 18 19 20 21 22 23 24 25 26 27 28 29 30 31 32 33 34 35 36 37 38 39 40 41 42 43 44 45 46 47 48 49 50
681 ASUS42 KCHS 230812 RWRCHS REGIONAL WEATHER ROUNDUP NATIONAL WEATHER SERVICE CHARLESTON SC 300 AM EST MON JAN 23 2017 NOTE: "FAIR" INDICATES FEW OR NO CLOUDS BELOW 12,000 FEET WITH NO SIGNIFICANT WEATHER AND/OR OBSTRUCTIONS TO VISIBILITY. NOT ALL STATIONS ARE QUALITY CONTROLLED. USE DATA WITH CAUTION... ESPECIALLY DEWPOINT OBSERVATIONS. SCZ027-030-031-034>040-042>050-230900- ...SOUTHEAST SOUTH CAROLINA... CITY SKY/WX TMP DP RH WIND PRES REMARKS N CHARLESTON CLEAR 55 48 77 SW8 29.33F WATERFRONT PRK N/A 57 52 83 W5 29.33S MOUNT PLEASANT FAIR 57 50 77 W10 29.34S JOHNS ISLAND FAIR 57 50 77 SW6G13 29.34F PINOPOLIS N/A 55 52 88 SW14 29.24R MONCKS CORNER FAIR 54 48 82 SW7 29.32F SUMMERVILLE FAIR 54 52 94 SW3 29.33F BEAUFORT MCAS CLEAR 52 48 86 SW6 29.33F BEAUFORT ARPT FAIR 54 50 87 SW5 29.34F HILTON HEAD IS CLEAR 54 50 87 SW5 29.36F WALTERBORO SUNNY 52 48 87 SW3 29.33F ALLENDALE FAIR 54 50 87 CALM 29.30F ...SOUTHERN MIDLANDS AND PEE DEE... CITY SKY/WX TMP DP RH WIND PRES REMARKS GEORGETOWN FAIR 54 48 82 W13G20 29.33R KINGSTREE FAIR 54 48 82 SW10G17 29.31R ORANGEBURG CLEAR 53 48 83 SW10 29.30S BARNWELL FAIR 54 50 87 CALM 29.30F AIKEN FAIR 50 46 87 SW8 29.31F MANNING FAIR 54 30 40 SW7G18 29.30F COLUMBIA CLEAR 53 48 83 SW7 29.27R SUMTER MOCLDY 53 47 80 SW14 29.26R FLORENCE MOCLDY 57 54 89 SW20G29 29.26R MYRTLE BEACH MOCLDY 63 57 82 W10 29.30R N MYRTLE BEACH CLEAR 59 58 96 SW12 29.26R $$ GAZ063-065-086>088-099>101-113>116-118-119-134>141-150-230900- ...SOUTHEAST GEORGIA... CITY SKY/WX TMP DP RH WIND PRES REMARKS SAVANNAH ARPT CLEAR 53 48 83 SW7 29.34F HUNTER AAF CLEAR 53 53 98 S5 29.32F FORT STEWART CLEAR 54 48 80 SW7 29.32F STATESBORO PTCLDY 55 51 89 SW6 29.33S SYLVANIA MOSUNNY N/A N/A N/A SW5 29.32F CLAXTON FAIR N/A N/A N/A S5 29.34S ...CSRA...CENTRAL AND FAR SOUTHEAST GEORGIA... CITY SKY/WX TMP DP RH WIND PRES REMARKS THOMSON CLOUDY 53 50 90 SW7 29.31F AUGUSTA-BUSH MOCLDY 52 47 83 SW5 29.29F AUGUSTA-DANIEL PTCLDY 52 46 80 S8 29.29F SWAINSBORO PTSUNNY 52 48 87 SW5 29.34S VIDALIA CLOUDY 54 52 94 SW10 29.35R EASTMAN FAIR 54 42 64 SW5 29.35F HAZLEHURST FAIR 55 53 93 SW6 29.35S ALMA CLEAR 54 49 83 SW6 29.37S WAYCROSS CLEAR 56 56 100 SW7 29.38S JESUP FAIR 54 50 87 SW5 29.37F BAXLEY FAIR 55 54 94 W6 29.36F BRUNSWICK CLEAR 55 52 88 SW10 29.39S SAINT SIMONS CLEAR 56 50 80 SW9 29.38F $$ SCZ027-028-034-036>038-045-046-048>050-GAZ119-141-230900- ...LAKE AND SUPPLEMENTAL COASTAL OBSERVATIONS... STATION/POSITION TIME TEMP WIND PRES WAVE SWELL AIR SEA DIR/SP/G HT/PER HT/PER/DIR (UTC) (F) (DEG/KT/KT) (MB) (FT/S) (FT/S/D) WINYAH BAY 0645 64 250/ 12 991.0 LAKE MURRAY 0720 55 230/ 12/ 17 990.9 ACE BASIN NERRS 0645 57 240/ 5 994.0 FORT PULASKI 0748 56 59 220/ 5/ 8 993.9F SAPELO ISLAND 0700 58 240/ 10 995.0 $$ ANZ835-935-AMZ111-154-330-350-352-354-370-450-454-472-230900- ...C-MAN AND BUOY OBSERVATIONS... STATION/POSITION TIME TEMP WIND PRES WAVE SWELL AIR SEA DIR/SP/G HT/PER HT/PER/DIR (UTC) (F) (DEG/KT/KT) (MB) (FT/S) (FT/S/D) BUOY 41004 0650 63 65 260/ 31/ 39 992.1 10/ 8 3/230/12 BUOY 41008 0650 61 60 220/ 16/ 19 994.2 5/ 6 2/180/13 FOLLY BEACH CMAN 0700 57 250/ 10/ 14 994.3R CAPERS NEARSHORE 0708 58 56 250/ 19/ 25 992.9R FRIPP NEARSHORE 0708 59 58 260/ 14/ 16 994.0R STATION/POSITION TIME TEMP WIND PRES WAVE SWELL AIR SEA DIR/SP/G HT/PER HT/PER/DIR (UTC) (F) (DEG/KT/KT) (MB) (FT/S) (FT/S/D) 5E ST. MARYS GA 0730 62 N/A 3/ 6 2/ 90/13 FRYING PAN BUOY 0750 68 68 230/ 27/ 33 991.8R 10/ 8 3/160/12 BUOY 41025 0750 67 71 130/ 14/ 17 995.1F 5/14 5/ 50/14 CAPE LOOKOUT NC 0700 64 100/ 16/ 18 993.1F BUOY 41002 0650 74 71 190/ 25/ 33 998.4 11/ 8 5/ 90/11 BUOY 41010 NOT AVBL ST AUGUSTINE FL 0800 58 65 240/ 7/ 8 997.7F $$

USA.gov is the U.S. government's official web portal to all federal, state and local government web resources and services.